DW3201 Weather Reports


Display with metric or nautical units.
time (UTC)temp
F
wind
direction
speed
MPH
gust
MPH
rain 1hr
in
rain 24hr
in
rain mn
in
humidity
%
barometer
mb
20210302191643 34 223 5.0 16.0 0.00 0.00 0.00 57 1018.3
20210302190254 34 207 4.0 12.0 0.00 0.00 0.00 56 1018.5
20210302184627 33 194 4.0 9.0 0.00 0.00 0.00 57 1018.8
20210302183218 33 326 2.0 17.0 0.00 0.00 0.00 58 1019.4
20210302181626 33 205 3.0 12.0 0.00 0.00 0.00 55 1019.6
20210302180135 32 212 5.0 10.0 0.00 0.00 0.00 54 1019.9
20210302174652 32 228 2.0 10.0 0.00 0.00 0.00 55 1020.2
20210302173433 31 184 3.0 13.0 0.00 0.00 0.00 54 1020.6
20210302171721 31 180 3.0 14.0 0.00 0.00 0.00 55 1020.7
20210302170149 30 217 4.0 9.0 0.00 0.00 0.00 59 1021.0
20210302164721 29 186 4.0 11.0 0.00 0.00 0.00 59 1021.1
20210302163636 30 215 3.0 10.0 0.00 0.00 0.00 57 1021.4
20210302161853 29 211 5.0 13.0 0.00 0.00 0.00 57 1021.5
20210302160215 28 209 5.0 15.0 0.00 0.00 0.00 56 1021.8
20210302154708 28 170 4.0 14.0 0.00 0.00 0.00 55 1021.8
20210302153559 28 163 5.0 12.0 0.00 0.00 0.00 54 1022.1
20210302151712 27 214 2.0 10.0 0.00 0.00 0.00 56 1022.3
20210302150309 26 258 3.0 12.0 0.00 0.00 0.00 57 1022.4
20210302144634 26 216 2.0 8.0 0.00 0.00 0.00 57 1022.3
20210302143405 24 209 3.0 9.0 0.00 0.00 0.00 57 1022.5
20210302141714 23 201 2.0 7.0 0.00 0.00 0.00 60 1022.8
20210302140200 22 192 1.0 5.0 0.00 0.00 0.00 66 1022.9
20210302134744 15 245 0.0 2.0 0.00 0.00 0.00 81 1022.9
20210302133450 11 0 0.0 2.0 0.00 0.00 0.00 86 1023.1
20210302131733 9 0 0.0 1.0 0.00 0.00 0.00 87 1023.2
20210302130143 8 0 0.0 0.0 0.00 0.00 0.00 86 1023.2
20210302124630 7 292 0.0 1.0 0.00 0.00 0.00 86 1023.4
20210302121731 8 0 0.0 0.0 0.00 0.00 0.00 86 1023.9
20210302120117 8 0 0.0 0.0 0.00 0.00 0.00 86 1024.1
20210302114917 8 0 0.0 0.0 0.00 0.00 0.00 86 1024.4
20210302111702 8 0 0.0 0.0 0.00 0.00 0.00 86 1024.8
20210302110532 8 0 0.0 0.0 0.00 0.00 0.00 85 1025.0
20210302104613 8 292 0.0 1.0 0.00 0.00 0.00 85 1025.4
20210302103557 8 0 0.0 0.0 0.00 0.00 0.00 85 1025.2
20210302101705 8 0 0.0 0.0 0.00 0.00 0.00 85 1025.1
20210302100112 8 0 0.0 1.0 0.00 0.00 0.00 84 1025.3
20210302094647 9 0 0.0 1.0 0.00 0.00 0.00 84 1025.5
20210302093635 9 0 0.0 0.0 0.00 0.00 0.00 84 1025.6
20210302091610 9 0 0.0 0.0 0.00 0.00 0.00 83 1025.8
20210302090739 9 0 0.0 1.0 0.00 0.00 0.00 83 1026.1
20210302084639 9 0 0.0 2.0 0.00 0.00 0.00 83 1026.1
20210302083148 9 0 0.0 1.0 0.00 0.00 0.00 82 1026.1
20210302081823 10 0 0.0 0.0 0.00 0.00 0.00 81 1026.5
20210302080126 10 0 0.0 0.0 0.00 0.00 0.00 81 1026.6
20210302074608 10 0 0.0 1.0 0.00 0.00 0.00 82 1026.7
20210302073452 10 0 0.0 1.0 0.00 0.00 0.00 82 1026.9
20210302071634 10 0 0.0 1.0 0.00 0.00 0.00 80 1027.1
20210302070303 11 0 0.0 1.0 0.00 0.00 0.00 78 1027.3
20210302064616 12 0 0.0 0.0 0.00 0.00 0.00 77 1027.4
20210302061150 12 0 0.0 0.0 0.00 0.00 0.00 77 1027.8
20210302055342 13 0 0.0 1.0 0.00 0.00 0.00 74 1027.6
20210302053433 14 0 0.0 1.0 0.00 0.00 0.00 72 1027.8
20210302051634 14 0 0.0 1.0 0.00 0.00 0.00 69 1027.8
20210302050130 14 0 0.0 1.0 0.00 0.00 0.00 74 1027.8
20210302044900 14 0 0.0 1.0 0.00 0.00 0.00 71 1027.8
20210302043414 15 0 0.0 0.0 0.00 0.00 0.00 68 1028.0
20210302041655 16 0 0.0 1.0 0.00 0.00 0.00 66 1028.2
20210302040126 17 0 0.0 0.0 0.00 0.00 0.00 66 1028.1
20210302034707 17 292 0.0 2.0 0.00 0.00 0.00 63 1028.1
20210302033317 17 0 0.0 1.0 0.00 0.00 0.00 61 1028.0
20210302031621 18 0 0.0 2.0 0.00 0.00 0.00 61 1027.9
20210302030148 18 0 0.0 1.0 0.00 0.00 0.00 66 1027.6
20210302024609 18 0 0.0 0.0 0.00 0.00 0.00 65 1027.6
20210302023117 19 0 0.0 0.0 0.00 0.00 0.00 60 1027.6
20210302021704 20 0 0.0 0.0 0.00 0.00 0.00 61 1027.6
20210302020228 20 0 0.0 0.0 0.00 0.00 0.00 61 1027.5
20210302014606 21 0 0.0 1.0 0.00 0.00 0.00 62 1027.4
20210302013609 22 0 0.0 1.0 0.00 0.00 0.00 59 1027.6
20210302011620 23 0 0.0 2.0 0.00 0.00 0.00 53 1027.6
20210302010234 24 302 0.0 2.0 0.00 0.00 0.00 49 1027.4
20210302004624 24 0 0.0 2.0 0.00 0.00 0.00 49 1027.3
20210302003521 24 298 1.0 2.0 0.00 0.00 0.00 48 1027.1
20210302001629 24 308 0.0 2.0 0.00 0.00 0.00 46 1026.7
20210302000117 25 308 0.0 3.0 0.00 0.00 0.00 48 1026.3
20210301234700 25 296 1.0 3.0 0.00 0.00 0.00 44 1026.3
20210301233358 26 0 0.0 3.0 0.00 0.00 0.00 47 1026.0
20210301231648 26 315 1.0 5.0 0.00 0.00 0.00 43 1025.8
20210301230125 27 315 1.0 6.0 0.00 0.00 0.00 42 1025.7
20210301224634 27 282 1.0 6.0 0.00 0.00 0.00 44 1025.7
20210301223345 28 313 1.0 5.0 0.00 0.00 0.00 46 1025.6
20210301221637 29 295 1.0 6.0 0.00 0.00 0.00 46 1025.5
20210301220134 29 0 1.0 4.0 0.00 0.00 0.00 48 1025.6
20210301214633 29 326 1.0 6.0 0.00 0.00 0.00 44 1025.5
20210301213551 29 326 1.0 6.0 0.00 0.00 0.00 42 1025.4
20210301211738 29 0 2.0 5.0 0.00 0.00 0.00 40 1025.3
20210301210117 30 0 1.0 7.0 0.00 0.00 0.00 41 1025.2
20210301205152 30 313 2.0 5.0 0.00 0.00 0.00 40 1025.1
20210301203438 30 269 1.0 6.0 0.00 0.00 0.00 41 1025.0
20210301201712 29 331 3.0 6.0 0.00 0.00 0.00 45 1024.8
20210301200128 28 279 2.0 10.0 0.00 0.00 0.00 46 1024.6
20210301194759 29 292 2.0 8.0 0.00 0.00 0.00 51 1024.5
20210301193334 29 288 2.0 8.0 0.00 0.00 0.00 47 1024.4